Regional Weather Roundup
Issued by NWS

Home | Current Version | Previous Version | Text Only | Print | Product List | Glossary Off
Versions: 1 2 3 4 5 6 7 8 9 10 11 12 13 14 15 16 17 18 19 20 21 22 23 24 25 26 27 28 29 30 31 32 33 34 35 36 37 38 39 40 41 42 43 44 45 46 47 48 49 50

211
ASUS43 KLOT 281203
RWRIL

ILLINOIS REGIONAL WEATHER ROUNDUP
NATIONAL WEATHER SERVICE CHICAGO/ROMEOVILLE IL
700 AM CDT THU JUL 28 2016

NOTE: "FAIR" INDICATES FEW OR NO CLOUDS BELOW 12,000 FEET WITH NO
SIGNIFICANT WEATHER AND/OR OBSTRUCTIONS TO VISIBILITY.

* THESE STATIONS ARE NOT UNDER NWS QUALITY CONTROL. THEY ALSO MAY NOT
  REPORT WEATHER SUCH AS PRECIPITATION OR FOG.

ILZ001-002-007-009-015-016-024-281300-
NORTHWEST ILLINOIS

CITY           SKY/WX    TMP DP  RH WIND       PRES   REMARKS
MOLINE         SUNNY     71  68  90 CALM      29.90R
6HR MIN TEMP:  67; 6HR MAX TEMP:  74;

STERLING*      SUNNY     68  68 100 CALM      29.90S FOG
SAVANNA*       SUNNY     68  68  98 CALM      29.90R FOG
$$

ILZ003-004-008-010-011-017-018-281300-
NORTH CENTRAL ILLINOIS

CITY           SKY/WX    TMP DP  RH WIND       PRES   REMARKS
ROCKFORD       PTSUNNY   73  68  84 CALM      29.92R HAZE
6HR MIN TEMP:  70; 6HR MAX TEMP:  75;

FREEPORT*      PTSUNNY   65  65  98 CALM      29.93R FOG
ROCHELLE*      CLOUDY    66  66  98 CALM      29.91S FOG
DE KALB*       CLOUDY    69  68  94 CALM      29.93R FOG
$$

ILZ005-006-012>014-019>023-281300-
NORTHEAST ILLINOIS

CITY           SKY/WX    TMP DP  RH WIND       PRES   REMARKS
CHICAGO-OHARE  PTSUNNY   75  68  78 E6        29.91R
6HR MIN TEMP:  71; 6HR MAX TEMP:  75;

CHICAGO-MIDWAY PTSUNNY   79  67  66 NE5       29.90S HX  81
6HR MIN TEMP:  75; 6HR MAX TEMP:  79;

AURORA         MOSUNNY   72  68  87 CALM      29.91R FOG
6HR MIN TEMP:  68; 6HR MAX TEMP:  72;

LANSING*       MOSUNNY   71  66  85 CALM      29.92R
WAUKEGAN       MOSUNNY   71  69  93 N6        29.92R
6HR MIN TEMP:  66; 6HR MAX TEMP:  75;

DUPAGE AIRPORT MOSUNNY   72  67  84 E5        29.91R
6HR MIN TEMP:  68; 6HR MAX TEMP:  73;

KANKAKEE*      CLOUDY    70  68  92 CALM      29.92S
WHEELING       PTSUNNY   72  69  90 CALM      29.92R
6HR MIN TEMP:  70; 6HR MAX TEMP:  73;

MORRIS*        MOSUNNY   71  70  95 CALM      29.90R FOG
NORTHERLY ISL    N/A     75  70  84 N3          N/A
$$

LMZ740>746-281300-
SOUTHERN LAKE MICHIGAN

STATION/POSITION SKY/WX   TEMP    WIND        PRES    VSBY  WAVE
                          AIR SEA DIR/SP/G                  HT/PER
                          (F)     (DEG/KT/KT) (MB)    (MI)  (FT/S)
SOUTHERN BUOY              73 75   30/ 10/ 12 1012.0          0
WILMETTE HARBOR            74 71  100/  4/  4   N/A           1/ 3
HARRISON CRIB              76      40/  6/  6   N/A
BURNHAM HARBOR             75     340/  2/  5   N/A
CALUMET HARBOR             72     170/  1/  1 1012.1R
BURNS HARBOR               72     190/  4/  6 1013.2S
MICHIGAN CITY              71     120/  6/  7   N/A
MICHIGAN CITY 6N           74 77  150/  4/  4   N/A           0
ST. JOSEPH                 75 76  210/  2/  4 1012.5R         1
$$

ILZ025>027-034>036-040-047-049-050-058-095>099-281300-
WEST-CENTRAL ILLINOIS

CITY           SKY/WX    TMP DP  RH WIND       PRES   REMARKS
QUINCY         PTCLDY    70  70 100 CALM      29.91R
GALESBURG*     SUNNY     69  68  98 W3        29.91R
MACOMB*        MOSUNNY   70  69  99 CALM      29.93R
JACKSONVILLE*  SUNNY     70  69  96 CALM      29.90R
PITTSFIELD*    MOSUNNY   69  68  94 CALM      29.92R
$$

ILZ028>032-037-038-041>044-048-051>054-059>061-281300-
CENTRAL ILLINOIS

CITY           SKY/WX    TMP DP  RH WIND       PRES   REMARKS
BLOOMINGTON    CLOUDY    72  68  87 SE7       29.92R
DECATUR        CLOUDY    72  69  90 N3        29.91R THUNDER
PEORIA         MOSUNNY   74  72  93 CALM      29.90R
6HR MIN TEMP:  72; 6HR MAX TEMP:  76;

LACON*         MOSUNNY   71  70  94 CALM      29.89S
LINCOLN*       PTSUNNY   73  72  99 CALM      29.89R FOG
SPRINGFIELD    FOG       74  73  97 NW5       29.90R VSB 1/4
6HR MIN TEMP:  73; 6HR MAX TEMP:  78;

TAYLORVILLE    PTSUNNY   73  73 100 MISG      29.90S FOG
6HR MIN TEMP:  70; 6HR MAX TEMP:  74;

$$

ILZ033-039-045-046-055>057-062-063-281300-
EAST-CENTRAL ILLINOIS

CITY           SKY/WX    TMP DP  RH WIND       PRES   REMARKS
CHAMPAIGN      PTSUNNY   72  69  90 E7        29.92R
MATTOON        FOG       73  72  96 S7        29.90R VSB 3/4
PARIS*         CLOUDY    72  72 100 CALM      29.91S
$$

ILZ079-100>102-281300-
SOUTHWEST ILLINOIS

CITY           SKY/WX    TMP DP  RH WIND       PRES   REMARKS
ALTON          MOSUNNY   70  70 100 CALM      29.91R
BELLEVILLE     MOSUNNY   74  74 100 CALM      29.89R
CAHOKIA*       MOSUNNY   75  73  93 W3        29.90R
SPARTA*        CLOUDY    73  72  96 CALM      29.91R
$$

ILZ064>066-069>071-074>076-080>082-084>086-088>090-092>094-281300-
SOUTH-CENTRAL ILLINOIS

CITY           SKY/WX    TMP DP  RH WIND       PRES   REMARKS
CARBONDALE     CLOUDY    74  72  93 S5        29.90S
6HR MIN TEMP:  73; 6HR MAX TEMP:  74;

CAIRO*         CLOUDY    74  74  99 SW3       29.90S
EFFINGHAM*     CLOUDY    73  73 100 CALM      29.93R FOG
MARION         PTSUNNY   73  73 100 S7        29.91F FOG
MT. VERNON     CLOUDY    73  70  88 MISG      29.90R
CENTRALIA*     CLOUDY    74  73  99 S3        29.90R FOG
SALEM*         CLOUDY    75  73  91 CALM      29.91R
METROPOLIS*    CLOUDY    74  73  98 CALM      29.92S
$$

ILZ067-068-072-073-078-083-087-091-281300-
SOUTHEAST ILLINOIS

CITY           SKY/WX    TMP DP  RH WIND       PRES   REMARKS
LAWRENCEVILLE  CLOUDY    74  73  97 SE3       29.92R
FLORA*         MOSUNNY   74  73  97 CALM      29.91R FOG
FAIRFIELD*     CLOUDY    73  73  98 CALM      29.90R
HARRISBURG*    CLOUDY    73  73  97 S5        29.91F
ROBINSON*      CLOUDY    73  73  97 CALM      29.92R FOG
CARMI*         CLOUDY    73  73 100 S5        29.91R
$$

ABBREVIATIONS USED IN REMARKS
   TC - TEMPERATURE IN CELSIUS
  WCI - WIND CHILL INDEX
   HX - HEAT INDEX
  VSB - VISIBILITY
$$





USA.gov is the U.S. government's official web portal to all federal, state and local government web resources and services.